This demonstration page uses our WeatherBlox Daily Observations layout. Learn more.

Left ArrowRight Arrow

38.20091, -84.87328

Hourly Observations for April 28, 2020

Temp ( °F °C ) Dew Point ( °F °C ) Humidity (%) Winds ( mph kmh ) Pressure ( in mb ) Visibility ( mi km ) Precip ( " mm )
12:53 am 00:53 Clear 52 11.1 39 3.9 61 61 SSW 5 7 30.06 1018 10 16 0.00 0.00
1:53 am 01:53 Partly Cloudy 53 11.7 39 3.9 59 59 SSW 7 11 30.06 1018 10 16 0.00 0.00
2:53 am 02:53 Cloudy 56 13.3 40 4.4 55 55 SSW 7 11 30.06 1018 10 16 0.00 0.00
3:53 am 03:53 Cloudy 56 13.3 40 4.4 55 55 S 7 11 30.04 1017 10 16 0.00 0.00
4:53 am 04:53 Cloudy 57 13.9 40 4.4 53 53 SSW 7 11 30.04 1017 10 16 0.00 0.00
5:53 am 05:53 Cloudy 57 13.9 41 5 55 55 SW 7 11 30.05 1018 10 16 0.00 0.00
6:53 am 06:53 Cloudy 58 14.4 42 5.6 56 56 Calm 30.06 1018 10 16 0.00 0.00
7:53 am 07:53 Cloudy 55 12.8 44 6.7 67 67 SSE 6 9 30.06 1018 10 16 0.00 0.00
8:53 am 08:53 Partly Cloudy 59 15 45 7.2 60 60 SSW 10 17 30.06 1018 10 16 0.00 0.00
9:53 am 09:53 Cloudy 60 15.6 44 6.7 56 56 SW 13 20 30.07 1018 10 16 0.00 0.00
10:53 am 10:53 Cloudy 61 16.1 47 8.3 60 60 SW 9 15 30.06 1018 10 16 0.00 0.00
11:53 am 11:53 Cloudy 66 18.9 48 8.9 52 52 SW 15 24 30.06 1018 10 16 0.00 0.00
12:53 pm 12:53 Cloudy 67 19.4 48 8.9 51 51 SW 16 26 30.04 1017 10 16 0.00 0.00
1:53 pm 13:53 Partly Cloudy 72 22.2 50 10 46 46 WSW 10 17 30.00 1016 10 16 0.00 0.00
2:53 pm 14:53 Sunny 74 23.3 51 10.6 45 45 SW 14 22 29.98 1015 10 16 0.00 0.00
3:53 pm 15:53 Sunny 74 23.3 50 10 43 43 SSW 16 26 29.96 1014 10 16 0.00 0.00
4:53 pm 16:53 Sunny 72 22.2 49 9.4 44 44 SSW 18 30 29.93 1014 10 16 0.00 0.00
5:53 pm 17:53 Cloudy 71 21.7 49 9.4 46 46 S 9 15 29.92 1013 10 16 0.00 0.00
6:53 pm 18:53 Mostly Sunny 70 21.1 48 8.9 46 46 SSW 8 13 29.91 1013 10 16 0.00 0.00
7:53 pm 19:53 Sunny 69 20.6 48 8.9 47 47 S 7 11 29.87 1011 10 16 0.00 0.00
8:53 pm 20:53 Clear 65 18.3 48 8.9 54 54 SSE 6 9 29.83 1010 10 16 0.00 0.00
9:53 pm 21:53 Mostly Cloudy 65 18.3 48 8.9 54 54 SSE 7 11 29.83 1010 10 16 0.00 0.00
10:53 pm 22:53 Cloudy 65 18.3 48 8.9 54 54 SSE 5 7 29.84 1011 10 16 0.00 0.00
11:53 pm 23:53 Mostly Cloudy 67 19.4 46 7.8 47 47 S 13 20 29.82 1010 10 16 0.00 0.00

Powered by AerisWeather